Find Starlink 33551

NORAD ID: 62110 Int'l Des: 2024-220 Owner: SPXS Country: US Constellation: starlink operational
LEOCIRCULAR

現在のビュー

3D地球を読み込み中...

About Starlink 33551

Starlink 33551 (NORAD 62110) is a starlink constellation satellite (v2 mini) launched Nov 25, 2024 by SPXS of US. It operates in LEO, CIRCULAR orbit with a mass of 530.00 kg.

Starlink 33551について

説明を読み込み中...

次回通過

Passes for default location (London). Set your location on the main map for personalized predictions.

高度履歴

Loading altitude history...

軌道要素

1 62110U 24220Y 26170.84204054 .00003970 00000-0 15370-3 0 9991
2 62110 43.0021 348.6799 0001357 279.1304 80.9394 15.27584524 88811
Epoch: Jun 19, 2026 • Age: 51 hours

現在のステータス

高度 495.2 km
速度 7.62 km/s
衛星直下点 -42.71°S, 7.94°W
打ち上げ日 Nov 25, 2024
運用期間 1.5 years
タイプ internet

技術仕様

分類 Payload
質量 530.00 kg
乾燥質量 500.00 kg
総質量 530.00 kg
長さ 0.30 m
直径 4.10 m
スパン 29.00 m
形状 Box + pan
製造者 SPXS
バスタイプ Starlink V2MO
フェーズステータス In Orbit
所有者/国 SPXS/US

Most Searched